Location: Stilling
(56.0622°N, 9.9882°E)
Time: 13:13:06
(UTC+00:00)

Meteor 1-10 Rocket - Pass Details

Date: 13 July 2020
Orbit: 835 x 911 km, 81.3° (Epoch: 06 August)

Event Time Altitude Azimuth Distance (km) Brightness Sun altitude
Rises 22:39:48 0° 345° (NNW) 3,413 9.5 -11.7°
Reaches altitude 10° 22:42:14 10° 346° (NNW) 2,469 8.2 -11.7°
Maximum altitude 22:47:50 85° 76° (ENE) 848 4.2 -11.9°
Enters shadow 22:52:20 16° 164° (SSE) 2,049 5.6 -12.0°
